Location: Dead Woman Crossing
(43.5369°N, 106.3228°W)
Time: 02:58:37
(UTC+00:00)

COSMOS 2251 DEB - Pass Details

Date: 02 December 2022
Orbit: 765 x 800 km, 74.0° (Epoch: 25 January)

Event Time Altitude Azimuth Distance (km) Brightness Sun altitude
Rises 00:47:44 0° 346° (NNW) 3,261 ? -13.7°
Reaches altitude 10° 00:50:21 10° 356° (N) 2,325 ? -14.2°
Maximum altitude 00:55:06 33° 61° (ENE) 1,271 ? -15.0°
Enters shadow 00:59:31 11° 123° (ESE) 2,204 ? -15.8°
